Regional Weather Roundup
Issued by NWS

Home | Current Version | Previous Version | Text Only | Print | Product List | Glossary Off
Versions: 1 2 3 4 5 6 7 8 9 10 11 12 13 14 15 16 17 18 19 20 21 22 23 24 25 26 27 28 29 30 31 32 33 34 35 36 37 38 39 40 41 42 43 44 45 46 47 48 49 50

000
ASUS45 KSLC 310110
RWRUT
UTAH REGIONAL WEATHER ROUNDUP
NATIONAL WEATHER SERVICE SALT LAKE CITY UT
700 PM MDT THU JUL 30 2015

UTZ001>011-023>025-310200-

NORTHERN UTAH

CITY           SKY/WX    TMP DP  RH WIND       PRES   REMARKS
BRIGHAM CITY   SUNNY     91  14   6 CALM      30.21S
HILL AFB       SUNNY     88  26  10 NW8       30.25F
LOGAN          SUNNY     88  31  13 SW8       30.22F
OGDEN          SUNNY     89  25  10 NW7       30.21F
PROVO AIRPORT  MOSUNNY   88  43  20 NW8       30.21F
SALT LAKE CITY MOSUNNY   91  23   8 NW9       30.19F
VERNAL         MOSUNNY   89   7   4 SE6       30.22F
WENDOVER       SUNNY     91  28  10 E6        30.19F
HEBER CITY     MOSUNNY   86  27  11 N6        30.29S
WEST JORDAN    SUNNY     88  34  14 NW9       30.23F

$$

UTZ012>022-026-027-310200-

SOUTHERN/CENTRAL UTAH

CITY           SKY/WX    TMP DP  RH WIND       PRES   REMARKS
BLANDING       PTSUNNY   85  35  16 CALM      30.33S
BRYCE CANYON     N/A     78  40  25 S9        30.41F
CEDAR CITY     PTSUNNY   88  29  12 CALM      30.22S
DELTA          SUNNY     93  20   7 NW12      30.19S
HANKSVILLE     SUNNY     95  23   7 SE5       30.14F
MILFORD        SUNNY     95  33  11 N13       30.17F HX  90
MOAB/CYNLANDS  SUNNY     95  19   6 VRB3      30.12F
PRICE          SUNNY     90  11   5 NW10      30.26F
ST GEORGE      PTCLDY    95  45  17 S14G21    30.02F HX  91
KANAB          CLOUDY    88  45  22 S9        30.23S

$$

REGIONAL REPORTS     COLORADO/ARIZONA

CITY           SKY/WX    TMP DP  RH WIND       PRES   REMARKS
CRAIG, CO      SUNNY     87  19   8 E5        30.29F
GRAND JUNCTION MOSUNNY   91  24   9 W7        30.15F
RIFLE          SUNNY     92  25   9 N3        30.20F
MONTROSE       SUNNY     89  31  12 NW13      30.24F
CORTEZ         PTSUNNY   73  50  44 W18G24    30.27F
PAGE, AZ       PTSUNNY   93  43  17 S5        30.12F
GRAND CANYON   PTSUNNY   73  51  46 SE9G20    30.36S
KINGMAN        CLOUDY    84  50  30 VRB5      30.12F
FLAGSTAFF      LGT RAIN  70  54  56 E10       30.39S

$$

REGIONAL REPORTS    NEVADA/IDAHO/WYOMING

CITY           SKY/WX    TMP DP  RH WIND       PRES   REMARKS
LAS VEGAS, NV  PTSUNNY  104  43  12 E6        29.91F HX  99
ELY            MOSUNNY   90  19   7 W7        30.28F
ELKO           MOSUNNY   93  14   5 N10       30.22F
POCATELLO, ID  SUNNY     89  25  10 E9        30.24F
BURLEY           N/A     87  38  17 W12       30.19F
EVANSTON, WY   SUNNY     80  15   8 NW8       30.41F
ROCK SPRINGS   SUNNY     80  18  10 SW8       30.37F
KEMMERER       SUNNY    N/A N/A N/A NW10      30.43F

$$


USA.gov is the U.S. government's official web portal to all federal, state and local government web resources and services.